Meteo pe oră la Bolshoe Lavrovo

Astăzi, 19 Mai, Miercuri

Timp Temperatura Precipitaţii Vânt Presiune Umiditate
00:00 +18°C° 0 mm 1 m/s 742 mmHg 92%
01:00 +16°C° 0.1 mm 2 m/s 742 mmHg 94%
02:00 +16°C° 0.1 mm 2 m/s 743 mmHg 95%
03:00 +16°C° 0.1 mm 3 m/s 743 mmHg 96%
04:00 +16°C° 0 mm 3 m/s 743 mmHg 94%
05:00 +16°C° 0 mm 3 m/s 743 mmHg 93%
06:00 +16°C° 0 mm 3 m/s 743 mmHg 91%
07:00 +18°C° 0 mm 3 m/s 744 mmHg 83%
08:00 +19°C° 0 mm 3 m/s 744 mmHg 76%
09:00 +20°C° 0 mm 3 m/s 744 mmHg 69%
10:00 +21°C° 0 mm 3 m/s 744 mmHg 64%
11:00 +22°C° 0 mm 4 m/s 744 mmHg 59%
12:00 +23°C° 0 mm 4 m/s 743 mmHg 54%
13:00 +25°C° 0 mm 4 m/s 743 mmHg 54%
14:00 +25°C° 0 mm 4 m/s 743 mmHg 55%
15:00 +25°C° 0 mm 4 m/s 743 mmHg 55%
16:00 +25°C° 0.1 mm 4 m/s 743 mmHg 59%
17:00 +23°C° 0.1 mm 4 m/s 742 mmHg 63%
18:00 +22°C° 0.1 mm 4 m/s 742 mmHg 68%
19:00 +21°C° 0 mm 4 m/s 742 mmHg 72%
20:00 +19°C° 0 mm 3 m/s 742 mmHg 76%
21:00 +17°C° 0 mm 3 m/s 742 mmHg 80%
22:00 +16°C° 0.4 mm 3 m/s 742 mmHg 84%
23:00 +14°C° 0.4 mm 3 m/s 742 mmHg 87%

Mâine, 20 Mai, Joi

Timp Temperatura Precipitaţii Vânt Presiune Umiditate
00:00 +14°C° 0.4 mm 3 m/s 742 mmHg 90%
01:00 +13°C° 0.1 mm 3 m/s 743 mmHg 91%
02:00 +13°C° 0.1 mm 3 m/s 743 mmHg 92%
03:00 +12°C° 0.1 mm 3 m/s 743 mmHg 92%
04:00 +12°C° 0 mm 4 m/s 743 mmHg 92%
05:00 +12°C° 0 mm 4 m/s 743 mmHg 92%
06:00 +12°C° 0 mm 4 m/s 743 mmHg 92%
07:00 +13°C° 0 mm 5 m/s 743 mmHg 86%
08:00 +15°C° 0 mm 6 m/s 743 mmHg 80%
09:00 +16°C° 0 mm 6 m/s 743 mmHg 74%
10:00 +16°C° 0 mm 6 m/s 743 mmHg 73%
11:00 +16°C° 0 mm 6 m/s 744 mmHg 72%
12:00 +16°C° 0 mm 6 m/s 744 mmHg 71%
13:00 +17°C° 0 mm 6 m/s 744 mmHg 69%
14:00 +17°C° 0 mm 5 m/s 744 mmHg 67%
15:00 +19°C° 0 mm 5 m/s 744 mmHg 65%
16:00 +19°C° 0.2 mm 4 m/s 744 mmHg 68%
17:00 +18°C° 0.2 mm 4 m/s 744 mmHg 72%
18:00 +18°C° 0.2 mm 3 m/s 744 mmHg 75%
19:00 +17°C° 0.1 mm 3 m/s 744 mmHg 81%
20:00 +14°C° 0.1 mm 3 m/s 745 mmHg 86%
21:00 +14°C° 0.1 mm 2 m/s 745 mmHg 92%
22:00 +14°C° 0 mm 2 m/s 745 mmHg 92%
23:00 +14°C° 0 mm 2 m/s 745 mmHg 92%

Poimâine, 21 Mai, Vineri

Timp Temperatura Precipitaţii Vânt Presiune Umiditate
00:00 +12°C° 0 mm 3 m/s 745 mmHg 92%
01:00 +12°C° 0 mm 3 m/s 745 mmHg 92%
02:00 +12°C° 0 mm 3 m/s 745 mmHg 93%
03:00 +12°C° 0 mm 3 m/s 745 mmHg 93%
04:00 +12°C° 0 mm 3 m/s 746 mmHg 93%
05:00 +12°C° 0 mm 3 m/s 746 mmHg 93%
06:00 +12°C° 0 mm 3 m/s 746 mmHg 93%
07:00 +13°C° 0 mm 4 m/s 746 mmHg 87%
08:00 +14°C° 0 mm 4 m/s 747 mmHg 81%
09:00 +15°C° 0 mm 4 m/s 747 mmHg 75%
10:00 +15°C° 0 mm 4 m/s 747 mmHg 71%
11:00 +17°C° 0 mm 4 m/s 748 mmHg 67%
12:00 +17°C° 0 mm 4 m/s 748 mmHg 62%
13:00 +18°C° 0 mm 4 m/s 748 mmHg 61%
14:00 +18°C° 0 mm 3 m/s 748 mmHg 60%
15:00 +18°C° 0 mm 3 m/s 748 mmHg 60%
16:00 +18°C° 0 mm 3 m/s 748 mmHg 62%
17:00 +18°C° 0 mm 3 m/s 749 mmHg 65%
18:00 +17°C° 0 mm 2 m/s 749 mmHg 68%
19:00 +16°C° 0 mm 2 m/s 749 mmHg 74%
20:00 +15°C° 0 mm 2 m/s 750 mmHg 79%
21:00 +13°C° 0 mm 2 m/s 750 mmHg 84%
22:00 +13°C° 0 mm 2 m/s 750 mmHg 84%
23:00 +13°C° 0 mm 1 m/s 750 mmHg 84%

22 Mai, Sâmbătă

Timp Temperatura Precipitaţii Vânt Presiune Umiditate
00:00 +13°C° 0 mm 1 m/s 750 mmHg 84%
01:00 +13°C° 0 mm 1 m/s 750 mmHg 84%
02:00 +12°C° 0 mm 1 m/s 750 mmHg 84%
03:00 +12°C° 0 mm 1 m/s 750 mmHg 83%
04:00 +12°C° 0.5 mm 2 m/s 750 mmHg 85%
05:00 +12°C° 0.5 mm 2 m/s 750 mmHg 87%
06:00 +12°C° 0.5 mm 3 m/s 750 mmHg 89%
07:00 +12°C° 1 mm 3 m/s 751 mmHg 91%
08:00 +12°C° 1 mm 3 m/s 751 mmHg 92%
09:00 +12°C° 1 mm 3 m/s 751 mmHg 93%
10:00 +13°C° 0 mm 4 m/s 751 mmHg 89%
11:00 +15°C° 0 mm 5 m/s 750 mmHg 84%
12:00 +16°C° 0 mm 6 m/s 750 mmHg 80%
13:00 +16°C° 0.1 mm 6 m/s 750 mmHg 82%
14:00 +15°C° 0.1 mm 6 m/s 750 mmHg 85%
15:00 +15°C° 0.1 mm 6 m/s 750 mmHg 87%
16:00 +15°C° 0 mm 6 m/s 749 mmHg 87%
17:00 +15°C° 0 mm 6 m/s 749 mmHg 87%
18:00 +15°C° 0 mm 7 m/s 749 mmHg 87%
19:00 +14°C° 0 mm 6 m/s 748 mmHg 88%
20:00 +14°C° 0 mm 6 m/s 748 mmHg 90%
21:00 +13°C° 0 mm 6 m/s 748 mmHg 91%
22:00 +13°C° 0.1 mm 6 m/s 748 mmHg 92%
23:00 +13°C° 0.1 mm 5 m/s 748 mmHg 94%

23 Mai, Duminică

Timp Temperatura Precipitaţii Vânt Presiune Umiditate
00:00 +13°C° 0.1 mm 5 m/s 748 mmHg 95%
01:00 +13°C° 0.1 mm 5 m/s 747 mmHg 95%
02:00 +13°C° 0.1 mm 5 m/s 747 mmHg 95%
03:00 +14°C° 0.1 mm 5 m/s 746 mmHg 95%
04:00 +14°C° 0 mm 4 m/s 746 mmHg 94%
05:00 +15°C° 0 mm 4 m/s 746 mmHg 92%
06:00 +16°C° 0 mm 3 m/s 746 mmHg 91%
07:00 +18°C° 0 mm 3 m/s 746 mmHg 84%
08:00 +20°C° 0 mm 4 m/s 746 mmHg 77%
09:00 +23°C° 0 mm 5 m/s 746 mmHg 70%
10:00 +25°C° 0 mm 5 m/s 746 mmHg 65%
11:00 +26°C° 0 mm 5 m/s 746 mmHg 61%
12:00 +28°C° 0 mm 5 m/s 746 mmHg 56%
13:00 +28°C° 0 mm 5 m/s 745 mmHg 55%
14:00 +29°C° 0 mm 5 m/s 745 mmHg 55%
15:00 +29°C° 0 mm 5 m/s 745 mmHg 54%
16:00 +28°C° 0 mm 4 m/s 745 mmHg 59%
17:00 +27°C° 0 mm 4 m/s 745 mmHg 63%
18:00 +26°C° 0 mm 3 m/s 745 mmHg 68%
19:00 +25°C° 0 mm 3 m/s 745 mmHg 71%
20:00 +24°C° 0 mm 3 m/s 744 mmHg 74%
21:00 +21°C° 0 mm 2 m/s 744 mmHg 78%
22:00 +21°C° 0 mm 2 m/s 744 mmHg 80%
23:00 +20°C° 0 mm 2 m/s 744 mmHg 82%

24 Mai, Luni

Timp Temperatura Precipitaţii Vânt Presiune Umiditate
00:00 +21°C° 0 mm 1 m/s 744 mmHg 84%
01:00 +19°C° 0 mm 2 m/s 744 mmHg 87%
02:00 +19°C° 0 mm 2 m/s 743 mmHg 91%
03:00 +18°C° 0 mm 3 m/s 743 mmHg 94%
04:00 +18°C° 0 mm 3 m/s 743 mmHg 93%
05:00 +18°C° 0 mm 3 m/s 743 mmHg 93%
06:00 +19°C° 0 mm 3 m/s 743 mmHg 92%
07:00 +20°C° 0 mm 3 m/s 744 mmHg 86%
08:00 +21°C° 0 mm 3 m/s 744 mmHg 79%
09:00 +24°C° 0 mm 3 m/s 744 mmHg 73%
10:00 +25°C° 0 mm 3 m/s 744 mmHg 69%
11:00 +26°C° 0 mm 3 m/s 745 mmHg 65%
12:00 +27°C° 0 mm 3 m/s 745 mmHg 60%
13:00 +27°C° 0 mm 3 m/s 745 mmHg 59%
14:00 +27°C° 0 mm 3 m/s 745 mmHg 58%
15:00 +27°C° 0 mm 3 m/s 745 mmHg 57%
16:00 +26°C° 0 mm 3 m/s 745 mmHg 63%
17:00 +25°C° 0 mm 2 m/s 745 mmHg 69%
18:00 +23°C° 0 mm 2 m/s 746 mmHg 74%
19:00 +21°C° 0.7 mm 2 m/s 746 mmHg 80%
20:00 +19°C° 0.7 mm 2 m/s 746 mmHg 86%
21:00 +17°C° 0.7 mm 3 m/s 747 mmHg 92%
22:00 +16°C° 0 mm 3 m/s 747 mmHg 92%
23:00 +14°C° 0 mm 3 m/s 747 mmHg 91%
Arată mai mult

Formular de consimțământ

Meteoprog și furnizorii noștri de servicii pot stoca și accesa date personale, precum cookies, identificatori de dispozitiv sau alte tehnologii similare pe dispozitivul dumneavoastră și procesa astfel de date pentru a personaliza conținutul și reclamele, dar și pentru a oferi caracteristici de social media și pentru a analiza traficul.

  • Stocarea și/sau accesarea informațiilor pe dispozitivul dumneavoastră

    Cookies, identificatori de dispozitiv sau alte informații pot fi stocate sau accesate pe dispozitiv în scopurile indicate mai sus.

  • Reclame și conținut personalizat, evaluarea reclamelor și a conținutului, informații despre audiențe și dezvoltarea produselor

    Reclamele și conținutul pot fi personalizate pe baza unui profil. Pot fi adăugate date suplimentare pentru a personaliza mai bine reclamele și conținutul. Performanța reclamelor și conținutului poate fi măsurată. Pot fi obținute informații despre utilizatorii care au văzut reclamele și conținutul. Aceste date pot fi utilizate pentru a dezvolta sau îmbunătăți experiența utilizatorilor, sistemele și software-ul.

Dând clic pe ‘Sunt de acord’, permiteți utilizarea cookie-urilor menționate, a identificatorilor de dispozitiv, balizelor web sau altor tehnologii similare. Setările pot fi modificate din browser-ul dispozitivului dumneavoastră.

În anumite scopuri, interesele legitime pot prima asupra consimțământului. Puteți citi mai multe informații în acest sens în Politica privind Confidențialitatea Datelor și Cookie.